map of LFPV home
LFPV - Airport
Location
City:  Vélizy-Villacoublay, Île-de-France, France
Name:Vélizy-Villacoublay AB
ICAO:LFPV

Details
Type:Airport (Aerodrome, Airfield)
Use:Military
Latitude:48°46'27"N (48.774172)
Longitude:2°11'30"E (2.191694)
Elevation:584 ft (178 m)
Variation:0.87°E (WMM2015v2 magnetic declination)
0.17° annual change
Runways:1
Longest:5948 × 148 ft (1813 × 45 m)

Time
Time Zone:UTC+1 (DST+2)
Local Time:

Weather
METAR:LFPV 041400Z AUTO 20007KT 160V240 9999 BKN046 OVC058 03/M02 Q1025 BECMG RASN BKN003
TAF:LFPV 041400Z 0415/0515 20007KT 9999 BKN045
BECMG 0416/0417 4000 RASN BKN005
BECMG 0420/0421 9999 NSW OVC003 PROB40
TEMPO 0422/0506 3000 BR OVC002
BECMG 0507/0508 BKN015

Related Locations
Nearby:
Farthest:CHT: 12081 mi / 19443 km
Waitangi [Tuuta], CIT, NZ

Find:

   beyond  
but within

Other Information
Maps:
NOTAMs:
Links:
Sources:

  
  • flag of France
  • flag of Île-de-France
  

Sectional Chart

Flight Planning
at skyvector.com

Satellite Image

Google Maps Satellite view

 

Copyright © 2004-2019 Karl L. Swartz. All rights reserved.
The Great Circle Mapper name and logo are trademarks of the Great Circle Mapper.
All other trademarks mentioned herein belong to their respective owners.
Please see credits for attibutions and further copyright information.

  Follow gcmap on Facebook Follow gcmap on Twitter GCmap on LinkedIn

hCard Microformat

Geo Microformat